Regional Weather Roundup
Issued by NWS Sioux Falls, SD

Home | Current Version | Previous Version | Text Only | Print | Product List | Glossary On
Versions: 1 2 3 4 5 6 7 8 9 10 11 12 13 14 15 16 17 18 19 20 21 22 23 24 25 26 27 28 29 30 31 32 33 34 35 36 37 38 39 40 41 42 43 44 45 46 47 48 49 50
000
ASUS43 KFSD 290310
RWRFSD

WEATHER ROUNDUP FOR SE SOUTH DAKOTA/SW MINNESOTA/NW IOWA
NATIONAL WEATHER SERVICE SIOUX FALLS SD
900 PM CST WED JAN 28 2015

NOTE: "FAIR" INDICATES FEW OR NO CLOUDS BELOW 12,000 FEET WITH NO
SIGNIFICANT WEATHER AND OR OBSTRUCTIONS TO VISIBILITY.


SDZ038>040-050-052>070-290400-
SOUTHEAST SOUTH DAKOTA

CITY           SKY/WX    TMP DP  RH WIND       PRES   REMARKS
CHAMBERLAIN    CLOUDY    35  29  79 NW36G43   30.09R WCI  20
HURON          MIX PCPN  34  31  88 NW24G33   30.01R WCI  21
MADISON        CLOUDY    32  32 100 N25G41    29.90R WCI  19
MITCHELL       CLOUDY    36  32  85 N23G37    30.02R
SIOUX FALLS    CLOUDY    38  34  85 NW20G25   29.87R
WINNER         CLOUDY    37  30  75 NW31G45   30.12R
YANKTON        CLOUDY   N/A N/A N/A NW25G35   29.93R
$$

MNZ071-072-080-081-089-090-097-098-290400-
SOUTHWEST MINNESOTA

CITY           SKY/WX    TMP DP  RH WIND       PRES   REMARKS
FAIRMONT       CLOUDY    34  28  80 NW9       29.78R WCI  26
JACKSON        CLOUDY    34  32  93 NW10      29.80R FOG     WCI  26
LUVERNE        CLOUDY    37  32  81 N14G20    29.85R
MARSHALL       CLOUDY    32  28  86 N14       29.88R WCI  22
MONTEVIDEO     FOG       32  32 100 N7        29.88R VSB 1/2 WCI  26
PIPESTONE      CLOUDY    36  34  93 N15G23    29.85R FOG
REDWOOD FALLS  FOG       33  32  96 N8        29.84R VSB 3/4 WCI  26
TRACY          CLOUDY    33  32  97 NW13      29.85R FOG     WCI  24
WINDOM         CLOUDY    34  34 100 NW9       29.81R FOG     WCI  26
WORTHINGTON    CLOUDY    34  30  86 NW20      29.82R WCI  22
$$

IAZ001>003-012>014-020>022-031-032-NEZ013-014-SDZ071-290400-
NORTHWEST IOWA

CITY           SKY/WX    TMP DP  RH WIND       PRES   REMARKS
CHEROKEE       CLOUDY    34  34  98 N5        29.81R FOG
DENISON        PTCLDY    39  36  87 N10       29.74R
ESTHERVILLE    CLOUDY    32  31  96 N9        29.79R FOG     WCI  24
LE MARS        CLOUDY    36  36 100 NW7       29.85R
ORANGE CITY    CLOUDY    36  34  93 N9        29.83R FOG
SHELDON        CLOUDY    36  36 100 NW17      29.81R FOG
SIOUX CITY     PTCLDY    42  36  79 NW26G36   29.83R
SPENCER        CLOUDY    35  32  88 N9        29.80R FOG     WCI  28
STORM LAKE     CLOUDY    34  32  93 N13       29.78R FOG     WCI  25
$$

ABBREVIATIONS USED IN REMARKS
   TC - TEMPERATURE IN CELSIUS
  WCI - WIND CHILL INDEX
   HX - HEAT INDEX
  VSB - VISIBILITY




USA.gov is the U.S. government's official web portal to all federal, state and local government web resources and services.